Regional Weather Roundup
Issued by NWS

Home | Current Version | Previous Version | Graphics & Text | Print | Product List | Glossary On
Versions: 1 2 3 4 5 6 7 8 9 10 11 12 13 14 15 16 17 18 19 20 21 22 23 24 25 26 27 28 29 30 31 32 33 34 35 36 37 38 39 40 41 42 43 44 45 46 47 48 49 50
000
ASUS45 KBOI 282210
RWRID

IDAHO REGIONAL WEATHER ROUNDUP
NATIONAL WEATHER SERVICE BOISE ID
400 PM MDT THU JUL 28 2016

NOTE: "FAIR" INDICATES FEW OR NO CLOUDS BELOW 12000 FEET
WITH NO SIGNIFICANT WEATHER AND/OR OBSTRUCTIONS TO VISIBILITY

IDZ012-014-282300-
SOUTHWEST IDAHO


CITY           SKY/WX    TMP DP  RH WIND       PRES   REMARKS
BOISE          SUNNY     98  39  13 NW12G18   30.00F HX  93
CALDWELL       SUNNY     97  50  20 VRB3      29.98F HX  94
$$

IDZ016-017-282300-
SOUTHCENTRAL IDAHO


CITY           SKY/WX    TMP DP  RH WIND       PRES   REMARKS
BURLEY         SUNNY     90  46  21 VRB7      30.07F
JEROME         SUNNY     94  39  14 SW12G18   30.08F HX  90
TWIN FALLS     SUNNY     94  34  12 NW9       30.09F
$$

IDZ019>023-282300-
SOUTHEAST IDAHO


CITY           SKY/WX    TMP DP  RH WIND       PRES   REMARKS
IDAHO FALLS    MOSUNNY   92  38  15 E7        30.11F
POCATELLO      SUNNY     92  36  14 MISG      30.10F
REXBURG        SUNNY     89  36  15 VRB7      30.12F
$$

IDZ006-010-011-018-031-032-282300-
CENTRAL IDAHO MOUNTAINS


CITY           SKY/WX    TMP DP  RH WIND       PRES   REMARKS
MCCALL         SUNNY     87  32  14 W7        30.18F
HAILEY         SUNNY     91  37  15 S12       30.13
STANLEY          N/A     86  27  11 NW8G18    30.26F
SALMON         SUNNY     91  39  16 N10       30.05F
CHALLIS        SUNNY     92  25   9 E8        30.09F
$$

IDZ002-004-006-007-026-282300-
NORTHERN IDAHO


CITY           SKY/WX    TMP DP  RH WIND       PRES   REMARKS
LEWISTON       SUNNY     98  45  16 CALM      29.97F HX  94
LOWELL           N/A     98  53  22 CALM      29.96F HX  96
COEUR D`ALENE  SUNNY     91  54  27 N3        30.02F
MULLAN PASS    SUNNY     77  44  30 VRB6      30.29F
$$



USA.gov is the U.S. government's official web portal to all federal, state and local government web resources and services.